• In Belarus
  • List of Countries
  • For 7 days
  • Water Temperature
  • Satellite Maps
  • Weather Map
  • Weather Widgets
  • user-avatar
    Login

    Hourly Weather Chiknayakanhalli

    Today, 25 March, Monday

    Time Temperature Precipitation Wind Pressure Humidity
    00:00 +31°C° 0 mm 3 mps 691 mmHg 29%
    01:00 +30°C° 0 mm 4 mps 690 mmHg 33%
    02:00 +29°C° 0 mm 5 mps 690 mmHg 37%
    03:00 +28°C° 0 mm 4 mps 690 mmHg 40%
    04:00 +27°C° 0 mm 4 mps 690 mmHg 44%
    05:00 +27°C° 0 mm 3 mps 690 mmHg 48%
    06:00 +28°C° 0 mm 3 mps 690 mmHg 46%
    07:00 +29°C° 0 mm 3 mps 691 mmHg 43%
    08:00 +30°C° 0 mm 4 mps 691 mmHg 41%
    09:00 +33°C° 0 mm 4 mps 692 mmHg 36%
    10:00 +35°C° 0 mm 4 mps 692 mmHg 31%
    11:00 +36°C° 0 mm 4 mps 692 mmHg 25%
    12:00 +37°C° 0 mm 4 mps 692 mmHg 22%
    13:00 +38°C° 0 mm 4 mps 691 mmHg 20%
    14:00 +40°C° 0 mm 4 mps 691 mmHg 17%
    15:00 +40°C° 0 mm 4 mps 690 mmHg 16%
    16:00 +39°C° 0 mm 5 mps 690 mmHg 16%
    17:00 +39°C° 0 mm 5 mps 690 mmHg 15%
    18:00 +37°C° 0 mm 5 mps 690 mmHg 17%
    19:00 +36°C° 0 mm 4 mps 690 mmHg 18%
    20:00 +35°C° 0 mm 4 mps 691 mmHg 19%
    21:00 +34°C° 0 mm 4 mps 691 mmHg 21%
    22:00 +33°C° 0 mm 4 mps 691 mmHg 24%
    23:00 +32°C° 0 mm 4 mps 692 mmHg 26%

    Tomorrow, 26 March, Tuesday

    Time Temperature Precipitation Wind Pressure Humidity
    00:00 +30°C° 0 mm 5 mps 691 mmHg 30%
    01:00 +29°C° 0 mm 5 mps 691 mmHg 35%
    02:00 +28°C° 0 mm 5 mps 691 mmHg 39%
    03:00 +28°C° 0 mm 5 mps 690 mmHg 41%
    04:00 +27°C° 0 mm 4 mps 690 mmHg 42%
    05:00 +27°C° 0 mm 3 mps 690 mmHg 44%
    06:00 +27°C° 0 mm 4 mps 691 mmHg 45%
    07:00 +28°C° 0 mm 4 mps 691 mmHg 46%
    08:00 +29°C° 0 mm 4 mps 692 mmHg 47%
    09:00 +32°C° 0 mm 4 mps 692 mmHg 40%
    10:00 +34°C° 0 mm 4 mps 692 mmHg 33%
    11:00 +36°C° 0 mm 3 mps 692 mmHg 26%
    12:00 +37°C° 0 mm 4 mps 692 mmHg 23%
    13:00 +38°C° 0 mm 4 mps 691 mmHg 20%
    14:00 +40°C° 0 mm 5 mps 691 mmHg 16%
    15:00 +40°C° 0 mm 5 mps 691 mmHg 16%
    16:00 +40°C° 0 mm 5 mps 690 mmHg 16%
    17:00 +39°C° 0 mm 5 mps 690 mmHg 16%
    18:00 +37°C° 0 mm 5 mps 691 mmHg 17%
    19:00 +36°C° 0 mm 4 mps 691 mmHg 18%
    20:00 +35°C° 0 mm 4 mps 692 mmHg 20%
    21:00 +34°C° 0 mm 4 mps 692 mmHg 23%
    22:00 +33°C° 0 mm 5 mps 692 mmHg 26%
    23:00 +32°C° 0 mm 5 mps 692 mmHg 29%

    Day after tomorrow, 27 March, Wednesday

    Time Temperature Precipitation Wind Pressure Humidity
    00:00 +30°C° 0 mm 4 mps 692 mmHg 33%
    01:00 +29°C° 0 mm 4 mps 691 mmHg 37%
    02:00 +28°C° 0 mm 3 mps 691 mmHg 41%
    03:00 +28°C° 0 mm 3 mps 691 mmHg 46%
    04:00 +27°C° 0 mm 3 mps 691 mmHg 52%
    05:00 +26°C° 0 mm 2 mps 691 mmHg 57%
    06:00 +27°C° 0 mm 2 mps 692 mmHg 58%
    07:00 +27°C° 0 mm 2 mps 692 mmHg 59%
    08:00 +28°C° 0 mm 3 mps 693 mmHg 59%
    09:00 +30°C° 0 mm 2 mps 693 mmHg 50%
    10:00 +32°C° 0 mm 1 mps 694 mmHg 41%
    11:00 +32°C° 0 mm 0 mps 694 mmHg 31%
    12:00 +35°C° 0 mm 1 mps 693 mmHg 28%
    13:00 +37°C° 0 mm 2 mps 692 mmHg 25%
    14:00 +37°C° 0 mm 3 mps 691 mmHg 21%
    15:00 +38°C° 0 mm 3 mps 691 mmHg 20%
    16:00 +38°C° 0 mm 3 mps 691 mmHg 19%
    17:00 +38°C° 0 mm 3 mps 691 mmHg 17%
    18:00 +36°C° 0 mm 3 mps 691 mmHg 18%
    19:00 +35°C° 0 mm 3 mps 692 mmHg 18%
    20:00 +34°C° 0 mm 3 mps 692 mmHg 19%
    21:00 +32°C° 0 mm 2 mps 692 mmHg 23%
    22:00 +31°C° 0 mm 2 mps 692 mmHg 27%
    23:00 +30°C° 0 mm 2 mps 692 mmHg 31%

    28 March, Thursday

    Time Temperature Precipitation Wind Pressure Humidity
    00:00 +29°C° 0 mm 2 mps 692 mmHg 40%
    01:00 +28°C° 0 mm 2 mps 691 mmHg 50%
    02:00 +27°C° 0 mm 1 mps 691 mmHg 60%
    03:00 +27°C° 0 mm 1 mps 691 mmHg 59%
    04:00 +26°C° 0 mm 1 mps 691 mmHg 58%
    05:00 +26°C° 0 mm 1 mps 691 mmHg 58%
    06:00 +27°C° 0 mm 1 mps 691 mmHg 55%
    07:00 +28°C° 0 mm 1 mps 692 mmHg 52%
    08:00 +29°C° 0 mm 2 mps 693 mmHg 50%
    09:00 +31°C° 0 mm 1 mps 693 mmHg 42%
    10:00 +33°C° 0 mm 1 mps 693 mmHg 34%
    11:00 +35°C° 0 mm 1 mps 693 mmHg 27%
    12:00 +36°C° 0 mm 2 mps 692 mmHg 24%
    13:00 +37°C° 0 mm 2 mps 691 mmHg 22%
    14:00 +38°C° 0 mm 3 mps 690 mmHg 19%
    15:00 +38°C° 0 mm 3 mps 690 mmHg 19%
    16:00 +38°C° 0 mm 3 mps 690 mmHg 18%
    17:00 +38°C° 0 mm 3 mps 690 mmHg 17%
    18:00 +37°C° 0 mm 3 mps 690 mmHg 19%
    19:00 +36°C° 0 mm 2 mps 690 mmHg 20%
    20:00 +35°C° 0 mm 2 mps 691 mmHg 22%
    21:00 +34°C° 0 mm 2 mps 691 mmHg 23%
    22:00 +32°C° 0 mm 2 mps 691 mmHg 24%
    23:00 +32°C° 0 mm 1 mps 691 mmHg 25%

    29 March, Friday

    Time Temperature Precipitation Wind Pressure Humidity
    00:00 +31°C° 0 mm 1 mps 691 mmHg 30%
    01:00 +30°C° 0 mm 1 mps 690 mmHg 34%
    02:00 +29°C° 0 mm 2 mps 689 mmHg 38%
    03:00 +28°C° 0 mm 2 mps 689 mmHg 47%
    04:00 +27°C° 0 mm 2 mps 689 mmHg 56%
    05:00 +26°C° 0 mm 2 mps 689 mmHg 65%
    06:00 +27°C° 0 mm 2 mps 690 mmHg 62%
    07:00 +28°C° 0 mm 2 mps 691 mmHg 59%
    08:00 +29°C° 0 mm 3 mps 692 mmHg 57%
    09:00 +31°C° 0 mm 2 mps 692 mmHg 48%
    10:00 +34°C° 0 mm 2 mps 692 mmHg 39%
    11:00 +35°C° 0 mm 1 mps 692 mmHg 31%
    12:00 +35°C° 0 mm 1 mps 691 mmHg 28%
    13:00 +36°C° 0 mm 1 mps 690 mmHg 25%
    14:00 +37°C° 0 mm 1 mps 689 mmHg 22%
    15:00 +38°C° 0 mm 2 mps 689 mmHg 22%
    16:00 +37°C° 0 mm 3 mps 689 mmHg 23%
    17:00 +37°C° 0 mm 4 mps 689 mmHg 23%
    18:00 +36°C° 0 mm 4 mps 689 mmHg 25%
    19:00 +36°C° 0 mm 3 mps 690 mmHg 27%
    20:00 +35°C° 0 mm 3 mps 690 mmHg 29%
    21:00 +33°C° 0 mm 3 mps 690 mmHg 36%
    22:00 +32°C° 0 mm 4 mps 690 mmHg 44%
    23:00 +30°C° 0 mm 4 mps 690 mmHg 52%

    30 March, Saturday

    Time Temperature Precipitation Wind Pressure Humidity
    00:00 +29°C° 0 mm 3 mps 690 mmHg 54%
    01:00 +29°C° 0 mm 3 mps 690 mmHg 56%
    02:00 +28°C° 0 mm 2 mps 689 mmHg 58%
    03:00 +28°C° 0 mm 2 mps 689 mmHg 61%
    04:00 +27°C° 0 mm 2 mps 690 mmHg 64%
    05:00 +27°C° 0 mm 1 mps 690 mmHg 67%
    06:00 +27°C° 0 mm 2 mps 690 mmHg 63%
    07:00 +28°C° 0 mm 2 mps 691 mmHg 59%
    08:00 +29°C° 0 mm 2 mps 692 mmHg 55%
    09:00 +31°C° 0 mm 2 mps 692 mmHg 47%
    10:00 +34°C° 0 mm 3 mps 692 mmHg 39%
    11:00 +36°C° 0 mm 3 mps 692 mmHg 31%
    12:00 +37°C° 0 mm 2 mps 691 mmHg 27%
    13:00 +38°C° 0 mm 2 mps 690 mmHg 23%
    14:00 +39°C° 0 mm 1 mps 690 mmHg 20%
    15:00 +38°C° 0 mm 2 mps 689 mmHg 20%
    16:00 +38°C° 0 mm 2 mps 689 mmHg 21%
    17:00 +37°C° 0 mm 3 mps 689 mmHg 21%
    18:00 +36°C° 0 mm 3 mps 690 mmHg 25%
    19:00 +35°C° 0 mm 3 mps 690 mmHg 30%
    20:00 +34°C° 0 mm 4 mps 691 mmHg 34%
    21:00 +33°C° 0 mm 3 mps 691 mmHg 41%
    22:00 +31°C° 0 mm 2 mps 691 mmHg 47%
    23:00 +30°C° 0 mm 1 mps 691 mmHg 54%
    Show more